COSMOS 2491 DEB, 45129

Orbit data source: Space-Track

COSMOS 2491 DEB, 45129 is space debris in LEO originally from a launch on Wed, 25 Dec 2013 UTC launched from the Plesetsk Missile And Space Complex (PKMTR). Debris objects in space refer to the collection of defunct objects orbiting the Earth. Examples of debris include non-operational satellites, rocket bodies, and fragments generated from explosions, collisions, or faulty payload assembly.

Loading next visibility...
Identifier
45129, 2013-076AB
Orbit
LEO
Country
Flag of CISCIS
Related business
Manufacturer
TsNIIKhM
Mission
Spacecraft
Bus & Motor
Unknown
Mass
Unknown
Launch date (UTC)
2013-12-25 (12 years ago)
Launch vehicle
Unknown
Launch site
Plesetsk Missile And Space Complex (PKMTR)
Object type
Payload
Rocket body
Debris
Shape & HBR
Unknown
Radar Cross Section
Small (<0.1 m²)

Expand to show TLE details & history
Last TLE update: 3 weeks ago

TLE from 3 weeks ago
0 COSMOS 2491 DEB
1 45129U 13076AB  25239.44656161  .00000009  00000-0 -18093-4 0  9997
2 45129  82.4310 304.3266 0242187 110.9753 251.7437 12.67533528121842
Epoch: 2025-08-27T10:43Z
TLE epoch observation values (Epoch: 2025-08-27T10:43:02.923Z)
Latitude
0.00003°
Longitude
167.64063°
Altitude
1,457.766 km
Speed
7.105 km/s
True Right ascension
20h 17m 18s
True Declination
0° 00' 00"
Sunlit
Object was in full shadow at epoch
Visualization orbit readout
Latitude
Unknown
Longitude
Unknown
Altitude
Unknown
Speed
Unknown
Apparent Right ascension
Unknown
Apparent Declination
Unknown
Sunlit
N/A
Visualization observer readout
Local Sidereal Time
13:30:08
Azimuth
Unknown
Elevation
Unknown
Doppler factor
Unknown
Orbital elements
Apogee altitude
1,577.438 km
Perigee altitude
1,201.202 km
Semi-major axis
7,767.457 km
Eccentricity
0.02422
Inclination
82.431°
RAAN
304.3266°
Arg. of periapsis
110.9753°
True anomaly
249.13381°
Mean anomaly
251.7437°
Eccentric anomaly
250.43618°
Mean motion
3.17048 °/min
Orbital period
113.55 mins
BSTAR
-0.000018093
Loading maneuver chart data...
Computing Atmospheric mass density...
Loading historical data...
Loading historical data...
Loading historical data...
Loading historical data...
Loading historical data...
Loading historical data...
Loading historical data...

Documentation

Showing up to 5 results
|